Location: Barrio de Buenos Aires
(28.4500°N, 16.2667°W)
Time: 17:41:36
(UTC+00:00)

Cosmos 2263 Rocket - Pass Details

Date: 24 January 2020
Orbit: 823 x 849 km, 71.0° (Epoch: 22 February)

Event Time Altitude Azimuth Distance (km) Brightness Sun altitude
Rises 19:26:32 0° 168° (SSE) 3,339 5.4 -11.0°
Reaches altitude 10° 19:29:21 10° 155° (SSE) 2,410 4.5 -11.6°
Maximum altitude 19:33:45 25° 102° (ESE) 1,607 3.2 -12.5°
Enters shadow 19:36:25 17° 63° (ENE) 1,947 3.5 -13.1°
